SCP
1 1 0 0 0 1 0 1 0 0 0 0 0 0 0 0 0 0 0 0 0 0 0 0 0 0 0 0 0 0 0 0
2 2 0 0 0 0 0 0 0 0 0 0 0 0 0 0 0 0 0 0 0 0 0 0 0 0 0 0 0 0 0 0
0 2 2 1 0 0 0 0 1 1 1 0 0 0 0 0 0 0 0 0 0 0 0 0 0 0 0 0 0 0 0 0
0 0 0 1 1 0 0 1 1 1 1 1 1 1 0 0 0 0 0 0 1 0 0 0 0 0 0 0 1 1 1 1
0 0 0 0 0 1 1 1 1 1 1 1 1 1 1 1 1 1 1 1 1 1 1 1 0 1 1 1 0 1 1 1
0 0 0 0 0 0 0 1 1 1 2 1 1 1 1 1 1 1 1 1 1 1 1 1 1 1 1 1 1 1 1 1
0 0 0 0 0 0 0 2 1 2 1 2 1 1 1 2 2 2 1 1 1 2 2 2 2 1 1 2 2 2 2 2
0 0 0 0 0 0 1 1 2 1 1 2 2 2 2 3 3 2 2 1 1 1 1 2 2 1 1 2 2 2 2 1
0 0 0 0 0 1 1 1 2 2 4 2 2 2 2 2 2 2 2 1 1 2 1 1 1 1 1 1 1 1 1 1
0 0 0 0 2 1 1 0 2 3 4 6 4 4 3 3 2 1 1 1 1 1 1 0 0 0 0 0 0 0 0 0
0 0 0 0 2 2 3 2 3 4 5 3 1 1 1 0 0 0 0 0 0 0 0 0 0 0 0 0 0 0 0 0
0 0 0 0 1 2 1 1 2 1 1 1 1 0 0 0 0 0 0 0 0 0 0 0 0 0 0 0 0 0 0 0
0 0 0 0 0 0 1 1 0 0 1 1 0 0 0 0 0 0 0 0 0 0 0 0 0 0 0 0 0 0 0 0
0 0 0 0 0 1 0 0 0 0 0 0 0 0 0 0 0 0 0 0 0 0 0 0 0 0 0 0 0 0 1 0
0 0 0 0 0 0 0 0 0 0 0 0 0 0 0 0 0 0 0 0 0 0 0 0 0 0 0 0 0 1 1 1
0 0 0 0 0 0 0 0 0 0 0 0 0 0 0 0 0 0 0 0 0 0 0 0 0 0 0 0 0 0 1 1
0 0 0 0 0 0 0 0 0 0 0 0 0 0 0 0 0 0 0 0 0 0 0 0 0 0 0 0 0 0 0 0
0 0 0 0 0 0 0 0 0 0 0 0 0 0 0 0 0 0 0 0 0 0 0 0 0 0 0 0 0 0 0 0
0 0 0 0 0 0 0 0 0 0 0 0 0 0 0 0 0 0 0 0 0 0 0 0 0 0 0 0 0 0 0 0
0 0 0 0 0 0 0 0 0 0 0 0 0 0 0 0 0 0 0 0 0 0 0 0 0 0 0 0 0 0 0 0
Wind_Speed_500mb
29 24 27 36 38 38 39 38 40 40 37 34 36 33 33 34 32 30 26 23 23 25 21 26 32 31 30 29 29 28 25 24
26 26 24 29 35 37 38 37 41 44 34 32 31 32 33 31 33 36 30 29 27 25 22 22 24 21 24 24 24 26 29 31
20 25 23 24 28 33 36 38 40 44 45 33 34 33 32 28 28 32 30 26 26 25 26 26 25 24 24 24 25 27 28 30
10 8 16 30 24 25 30 35 39 41 45 40 35 33 31 30 28 28 33 29 29 26 27 27 27 27 27 29 31 32 33 35
22 11 1 4 14 27 29 32 35 39 39 40 34 30 33 28 28 33 29 30 31 32 26 26 26 25 31 31 34 35 38 39
36 10 5 6 11 15 27 28 30 35 37 35 32 29 28 28 27 23 26 28 26 26 25 23 22 24 26 27 28 31 33 36
47 28 6 12 22 18 11 20 23 29 30 37 39 32 29 29 27 22 24 26 27 27 27 25 28 23 26 29 32 33 36 37
46 37 25 30 11 10 14 20 28 9 29 31 31 33 32 34 35 27 31 30 31 28 25 29 31 31 30 33 36 32 38 39
63 45 46 42 24 10 19 18 20 23 37 26 32 27 25 28 28 26 26 24 22 26 21 23 23 24 25 27 30 34 37 37
68 48 26 40 46 24 29 31 40 41 39 49 34 28 29 25 22 21 20 17 17 16 18 20 23 23 28 28 30 35 41 41
46 34 48 41 56 51 41 41 40 41 47 44 41 35 30 26 20 15 16 18 21 24 28 28 27 30 28 31 30 31 39 41
43 37 37 30 46 63 63 47 35 31 31 32 32 30 23 17 13 13 19 23 25 26 29 29 33 30 35 35 32 33 35 43
36 34 34 26 32 41 44 46 47 47 47 42 33 26 20 19 17 18 22 26 29 32 36 41 44 45 41 48 54 47 44 49
26 31 35 36 40 40 52 53 50 44 39 36 33 33 29 19 22 25 22 26 32 39 46 53 58 61 61 56 54 57 61 64
29 37 43 46 43 38 36 36 39 37 34 31 27 26 27 28 35 32 40 41 39 43 59 65 68 72 75 76 72 69 70 71
38 40 41 42 37 30 31 31 30 27 24 24 27 32 35 35 36 44 49 56 61 68 74 78 81 83 81 84 82 69 72 77
38 36 34 34 30 26 21 18 19 23 25 27 31 34 38 41 47 54 59 65 66 67 73 79 82 83 82 81 74 73 75 80
32 29 27 22 20 22 22 23 23 23 26 29 33 39 45 50 56 61 64 66 69 72 73 73 73 69 63 58 55 56 65 72
29 26 23 21 18 13 9 5 9 15 23 31 38 44 49 53 56 60 62 65 65 64 60 54 51 49 49 51 54 58 62 65
27 25 22 16 11 6 3 12 17 22 30 37 42 48 53 56 57 59 61 61 55 50 48 47 44 45 47 49 52 53 57 62
Wind_Direction_500mb
188 191 200 198 195 195 194 197 190 189 191 191 191 197 200 208 209 214 205 210 220 221 226 241 244 250 255 267 264 266 259 252
199 192 203 199 202 203 200 204 200 196 196 196 197 200 204 205 211 219 211 219 225 216 226 232 239 240 248 251 256 259 259 267
212 206 211 216 213 205 204 201 203 208 200 202 198 203 211 214 216 222 216 221 225 231 233 236 238 244 251 256 255 260 264 269
167 152 209 229 228 227 209 208 211 211 213 207 207 208 214 213 219 223 233 231 232 235 244 247 248 250 254 258 262 262 267 267
205 162 21 144 242 225 217 210 215 216 214 216 214 216 214 220 222 229 236 246 247 247 242 246 246 249 257 267 270 269 271 269
211 165 150 326 4 235 216 209 213 231 230 228 219 216 222 222 228 235 239 237 236 246 238 240 246 248 253 260 265 268 268 269
220 215 198 285 324 305 307 244 229 238 233 236 237 225 218 227 225 228 241 235 229 236 241 243 252 257 257 258 259 261 268 272
231 220 232 264 280 295 265 257 250 251 276 237 228 231 231 229 231 233 245 244 235 239 246 254 263 271 274 268 272 272 275 276
231 236 235 241 224 262 292 250 219 248 232 244 229 221 215 225 225 231 240 241 237 244 248 257 260 261 259 259 269 278 281 277
219 215 230 231 229 243 263 248 245 211 218 227 214 216 204 206 216 222 222 224 229 232 239 250 256 262 270 272 273 277 278 278
209 212 214 218 217 241 218 257 230 211 201 205 215 214 213 192 194 213 237 248 257 262 268 272 265 280 276 274 280 278 283 279
222 206 222 215 216 210 220 213 197 193 186 191 191 175 175 191 214 226 255 259 267 275 276 272 277 272 267 274 278 273 275 278
202 215 208 203 211 199 175 169 170 166 168 168 172 168 183 199 210 234 245 261 267 269 273 274 274 274 274 272 275 270 271 273
186 179 163 158 156 151 162 166 166 166 168 171 182 192 193 204 230 245 257 265 272 274 273 274 276 277 276 276 274 271 268 267
156 157 151 145 143 145 151 166 166 172 182 191 203 219 235 253 260 264 266 275 279 280 281 282 281 281 280 277 274 271 267 264
151 149 147 141 140 145 162 172 181 190 205 225 235 248 257 263 271 272 277 280 283 283 283 285 283 280 276 274 272 269 267 265
146 145 144 141 138 140 153 174 200 218 233 247 255 262 271 278 282 285 285 283 282 284 282 283 282 282 280 276 273 270 266 263
142 139 132 130 154 184 197 209 222 237 250 262 275 281 284 285 284 284 285 284 284 283 283 284 284 283 280 277 276 274 270 268
144 140 137 137 139 145 169 201 257 275 281 283 285 286 285 287 289 287 288 290 289 288 287 283 281 278 280 281 281 279 275 272
146 145 142 144 149 153 300 284 288 290 287 287 289 290 291 292 291 290 293 292 289 284 286 282 282 284 282 282 282 279 279 276
Wind_Speed_850mb
29 24 27 36 38 38 39 38 40 40 37 34 36 33 33 34 32 30 26 23 23 25 21 26 32 31 30 29 29 28 25 24
26 26 24 29 35 37 38 37 41 44 34 32 31 32 33 31 33 36 30 29 27 25 22 22 24 21 24 24 24 26 29 31
20 25 23 24 28 33 36 38 40 44 45 33 34 33 32 28 28 32 30 26 26 25 26 26 25 24 24 24 25 27 28 30
10 8 16 30 24 25 30 35 39 41 45 40 35 33 31 30 28 28 33 29 29 26 27 27 27 27 27 29 31 32 33 35
22 11 1 4 14 27 29 32 35 39 39 40 34 30 33 28 28 33 29 30 31 32 26 26 26 25 31 31 34 35 38 39
36 10 5 6 11 15 27 28 30 35 37 35 32 29 28 28 27 23 26 28 26 26 25 23 22 24 26 27 28 31 33 36
47 28 6 12 22 18 11 20 23 29 30 37 39 32 29 29 27 22 24 26 27 27 27 25 28 23 26 29 32 33 36 37
46 37 25 30 11 10 14 20 28 9 29 31 31 33 32 34 35 27 31 30 31 28 25 29 31 31 30 33 36 32 38 39
63 45 46 42 24 10 19 18 20 23 37 26 32 27 25 28 28 26 26 24 22 26 21 23 23 24 25 27 30 34 37 37
68 48 26 40 46 24 29 31 40 41 39 49 34 28 29 25 22 21 20 17 17 16 18 20 23 23 28 28 30 35 41 41
46 34 48 41 56 51 41 41 40 41 47 44 41 35 30 26 20 15 16 18 21 24 28 28 27 30 28 31 30 31 39 41
43 37 37 30 46 63 63 47 35 31 31 32 32 30 23 17 13 13 19 23 25 26 29 29 33 30 35 35 32 33 35 43
36 34 34 26 32 41 44 46 47 47 47 42 33 26 20 19 17 18 22 26 29 32 36 41 44 45 41 48 54 47 44 49
26 31 35 36 40 40 52 53 50 44 39 36 33 33 29 19 22 25 22 26 32 39 46 53 58 61 61 56 54 57 61 64
29 37 43 46 43 38 36 36 39 37 34 31 27 26 27 28 35 32 40 41 39 43 59 65 68 72 75 76 72 69 70 71
38 40 41 42 37 30 31 31 30 27 24 24 27 32 35 35 36 44 49 56 61 68 74 78 81 83 81 84 82 69 72 77
38 36 34 34 30 26 21 18 19 23 25 27 31 34 38 41 47 54 59 65 66 67 73 79 82 83 82 81 74 73 75 80
32 29 27 22 20 22 22 23 23 23 26 29 33 39 45 50 56 61 64 66 69 72 73 73 73 69 63 58 55 56 65 72
29 26 23 21 18 13 9 5 9 15 23 31 38 44 49 53 56 60 62 65 65 64 60 54 51 49 49 51 54 58 62 65
27 25 22 16 11 6 3 12 17 22 30 37 42 48 53 56 57 59 61 61 55 50 48 47 44 45 47 49 52 53 57 62
Wind_Direction_850mb
188 191 200 198 195 195 194 197 190 189 191 191 191 197 200 208 209 214 205 210 220 221 226 241 244 250 255 267 264 266 259 252
199 192 203 199 202 203 200 204 200 196 196 196 197 200 204 205 211 219 211 219 225 216 226 232 239 240 248 251 256 259 259 267
212 206 211 216 213 205 204 201 203 208 200 202 198 203 211 214 216 222 216 221 225 231 233 236 238 244 251 256 255 260 264 269
167 152 209 229 228 227 209 208 211 211 213 207 207 208 214 213 219 223 233 231 232 235 244 247 248 250 254 258 262 262 267 267
205 162 21 144 242 225 217 210 215 216 214 216 214 216 214 220 222 229 236 246 247 247 242 246 246 249 257 267 270 269 271 269
211 165 150 326 4 235 216 209 213 231 230 228 219 216 222 222 228 235 239 237 236 246 238 240 246 248 253 260 265 268 268 269
220 215 198 285 324 305 307 244 229 238 233 236 237 225 218 227 225 228 241 235 229 236 241 243 252 257 257 258 259 261 268 272
231 220 232 264 280 295 265 257 250 251 276 237 228 231 231 229 231 233 245 244 235 239 246 254 263 271 274 268 272 272 275 276
231 236 235 241 224 262 292 250 219 248 232 244 229 221 215 225 225 231 240 241 237 244 248 257 260 261 259 259 269 278 281 277
219 215 230 231 229 243 263 248 245 211 218 227 214 216 204 206 216 222 222 224 229 232 239 250 256 262 270 272 273 277 278 278
209 212 214 218 217 241 218 257 230 211 201 205 215 214 213 192 194 213 237 248 257 262 268 272 265 280 276 274 280 278 283 279
222 206 222 215 216 210 220 213 197 193 186 191 191 175 175 191 214 226 255 259 267 275 276 272 277 272 267 274 278 273 275 278
202 215 208 203 211 199 175 169 170 166 168 168 172 168 183 199 210 234 245 261 267 269 273 274 274 274 274 272 275 270 271 273
186 179 163 158 156 151 162 166 166 166 168 171 182 192 193 204 230 245 257 265 272 274 273 274 276 277 276 276 274 271 268 267
156 157 151 145 143 145 151 166 166 172 182 191 203 219 235 253 260 264 266 275 279 280 281 282 281 281 280 277 274 271 267 264
151 149 147 141 140 145 162 172 181 190 205 225 235 248 257 263 271 272 277 280 283 283 283 285 283 280 276 274 272 269 267 265
146 145 144 141 138 140 153 174 200 218 233 247 255 262 271 278 282 285 285 283 282 284 282 283 282 282 280 276 273 270 266 263
142 139 132 130 154 184 197 209 222 237 250 262 275 281 284 285 284 284 285 284 284 283 283 284 284 283 280 277 276 274 270 268
144 140 137 137 139 145 169 201 257 275 281 283 285 286 285 287 289 287 288 290 289 288 287 283 281 278 280 281 281 279 275 272
146 145 142 144 149 153 300 284 288 290 287 287 289 290 291 292 291 290 293 292 289 284 286 282 282 284 282 282 282 279 279 276